Location: Baumgarten
(49.0970°N, 12.7493°E)
Time: 18:11:55
(UTC+00:00)

GEOS 3 Rocket - Pass Details

Date: 05 July 2020
Orbit: 771 x 848 km, 115.0° (Epoch: 12 August)

Event Time Altitude Azimuth Distance (km) Brightness Sun altitude
Rises 20:54:53 0° 40° (NE) 3,408 7.1 -11.8°
Reaches altitude 10° 20:57:13 10° 39° (NE) 2,475 6.4 -12.0°
Maximum altitude 21:02:37 77° 314° (NW) 875 3.9 -12.5°
Drops below altitude 10° 21:08:00 10° 230° (SW) 2,467 6.0 -12.9°
Sets 21:10:18 0° 229° (SW) 3,395 6.7 -13.1°
